Content
SEND FEEDBACK

Daily
Averages
Monthly
Summary
Greece

THESSALONIKI, GREECE


Home > Europe > Greece
Elevation: 13 feet     Latitude: 40 13N     Longitude: 022 58E

WEATHER
 
SELECT A DAY
Number of Records: 94,555;   Date Range: 7/3/96 - 9/15/14
 
SHARE

PRINT THIS DATA

[ ← Previous Day ]
WEATHER ALMANAC - JANUARY 1, 2013
[ Next Day → ]
[ °C ]   °F
Weather ElementAverageHighLow
Temperature44.5 °F51.8 °F (1:50 pm)39 °F (8:00 am)
Dewpoint38.6 °F41 °F (10:20 am)35.6 °F (9:50 pm)
Humidity80 %93 % (6:50 am)55 % (2:00 pm)
Barometer30.16 in30.20 in (2:00 am)30.12 in (1:50 pm)
Wind Speed2.1 mph6.9 mph (10:20 pm)
Weather ElementAverage
Visibility6.1 mi
Wind DirectionENE (60.8 °)

Weather ElementTotal
Precipitation---
Heating Degree Days19.6 (Base 65)
Averaged from 50 records on January 1, 2013
WEATHER CONDITIONS BREAKOUT
WIND DIRECTION BREAKOUT
WEATHER BY HOUR - JANUARY 1, 2013
[ °C ]   °F
Local TimeTemperatureDewpointHumidityBarometerVisibilityWind DirectionWind SpeedGust SpeedPrecipitationEventsConditions
12:50 AM42.8 °F39.2 °F87 %30.18 in6.2 miCalmMostly Cloudy
1:20 AM42.8 °F39.2 °F87 %30.18 in6.2 miCalmMostly Cloudy
1:50 AM42.8 °F39.2 °F87 %30.18 in6.2 miCalmMostly Cloudy
2:00 AM42.0 °F39.0 °F85 %30.20 in6.0 miCalmScattered Clouds
2:20 AM42.8 °F39.2 °F87 %30.18 in6.2 miCalmMostly Cloudy
2:50 AM42.8 °F39.2 °F87 %30.18 in6.2 miCalmMostly Cloudy
3:20 AM42.8 °F39.2 °F87 %30.18 in6.2 miCalmMostly Cloudy
3:50 AM41.0 °F37.4 °F87 %30.18 in6.2 miCalmMostly Cloudy
4:20 AM41.0 °F37.4 °F87 %30.18 in6.2 miCalmMostly Cloudy
4:50 AM41.0 °F37.4 °F87 %30.15 in6.2 miCalmMostly Cloudy
5:50 AM41.0 °F37.4 °F87 %30.15 in6.2 miCalmMostly Cloudy
6:20 AM41.0 °F37.4 °F87 %30.15 in6.2 miCalmMostly Cloudy
6:50 AM39.2 °F37.4 °F93 %30.15 in6.2 miCalmMostly Cloudy
7:20 AM39.2 °F37.4 °F93 %30.15 in6.2 miCalmMostly Cloudy
7:50 AM39.2 °F37.4 °F93 %30.15 in4.3 miCalmMostly Cloudy
8:00 AM39.0 °F37.0 °F90 %30.18 in4.0 miCalmMist
8:20 AM39.2 °F37.4 °F93 %30.18 in5.0 miVariable3.5 mphMostly Cloudy
8:50 AM41.0 °F37.4 °F87 %30.18 in6.2 miCalmScattered Clouds
9:20 AM41.0 °F37.4 °F87 %30.18 in6.2 miCalmScattered Clouds
9:50 AM44.6 °F39.2 °F81 %30.18 in6.2 miVariable3.5 mphPartly Cloudy
10:20 AM48.2 °F41.0 °F76 %30.18 in6.2 miVariable3.5 mphPartly Cloudy
10:50 AM50.0 °F41.0 °F71 %30.18 in6.2 miCalmPartly Cloudy
11:20 AM50.0 °F41.0 °F71 %30.18 in6.2 miCalmPartly Cloudy
11:50 AM50.0 °F41.0 °F71 %30.15 in6.2 miWest (280°)5.8 mphPartly Cloudy
12:20 PM50.0 °F41.0 °F71 %30.15 in6.2 miWest (280°)5.8 mphPartly Cloudy
12:50 PM50.0 °F39.2 °F66 %30.15 in6.2 miWNW (290°)4.6 mphPartly Cloudy
1:20 PM50.0 °F39.2 °F66 %30.15 in6.2 miWNW (290°)4.6 mphPartly Cloudy
1:50 PM51.8 °F39.2 °F62 %30.12 in6.2 miNW (310°)3.5 mphPartly Cloudy
2:00 PM51.0 °F40.0 °F55 %30.15 in6.0 miNW (310°)3.5 mphScattered Clouds
2:20 PM51.8 °F39.2 °F62 %30.12 in6.2 miVariable3.5 mphPartly Cloudy
2:50 PM51.8 °F39.2 °F62 %30.12 in6.2 miVariable3.5 mphPartly Cloudy
3:20 PM51.8 °F39.2 °F62 %30.12 in6.2 miVariable3.5 mphPartly Cloudy
3:50 PM51.8 °F41.0 °F67 %30.12 in6.2 miCalmPartly Cloudy
4:20 PM51.8 °F41.0 °F67 %30.12 in6.2 miCalmPartly Cloudy
4:50 PM51.8 °F41.0 °F67 %30.12 in6.2 miCalmPartly Cloudy
5:20 PM50.0 °F41.0 °F71 %30.12 in6.2 miCalmPartly Cloudy
5:50 PM46.4 °F39.2 °F76 %30.12 in6.2 miCalmPartly Cloudy
6:20 PM46.4 °F39.2 °F76 %30.15 in6.2 miCalmPartly Cloudy
6:50 PM42.8 °F37.4 °F81 %30.15 in6.2 miCalmPartly Cloudy
7:20 PM42.8 °F39.2 °F87 %30.15 in6.2 miESE (110°)4.6 mphPartly Cloudy
7:50 PM42.8 °F37.4 °F81 %30.15 in6.2 miESE (120°)4.6 mphPartly Cloudy
8:00 PM42.0 °F38.0 °F81 %30.17 in6.0 miESE (120°)4.6 mphScattered Clouds
8:20 PM41.0 °F37.4 °F87 %30.15 in6.2 miESE (120°)4.6 mphPartly Cloudy
8:50 PM41.0 °F37.4 °F87 %30.15 in6.2 miESE (110°)5.8 mphPartly Cloudy
9:20 PM41.0 °F37.4 °F87 %30.15 in6.2 miESE (120°)5.8 mphPartly Cloudy
9:50 PM39.2 °F35.6 °F87 %30.15 in6.2 miESE (110°)5.8 mphPartly Cloudy
10:20 PM39.2 °F35.6 °F87 %30.18 in6.2 miEast (100°)6.9 mphPartly Cloudy
10:50 PM41.0 °F37.4 °F87 %30.18 in6.2 miESE (120°)5.8 mphScattered Clouds
11:20 PM41.0 °F37.4 °F87 %30.18 in6.2 miVariable3.5 mphScattered Clouds
11:50 PM42.8 °F37.4 °F81 %30.18 in6.2 miSE (130°)5.8 mphMostly Cloudy
Hourly data recorded from LGTS, located miles away from Thessaloniki, Greece







STORIES FROM OUR PARTNERS